Location: Boleita
(10.4833°N, 66.8167°W)
Time: 01:21:53
(UTC+00:00)

Cosmos 1484 Rocket - Pass Details

Date: 08 November 2025
Orbit: 442 x 473 km, 97.6° (Epoch: 09 December)

Event Time Altitude Azimuth Distance (km) Brightness Sun altitude
Rises 09:48:47 0° 10° (N) 2,514 6.1 -8.3°
Reaches altitude 10° 09:50:50 10° 9° (N) 1,634 5.2 -7.8°
Maximum altitude 09:54:21 84° 281° (WNW) 476 2.4 -6.9°
Drops below altitude 10° 09:57:49 10° 193° (SSW) 1,618 5.3 -6.1°
Sets 09:59:51 0° 193° (SSW) 2,488 6.2 -5.6°
